Previsão horária em Senihiv

Hoje, 2 Dezembro, Quarta-feira

Tempo Temperatura Precipitação Vento Pressão Humidade
00:00 -5°C° 0 mm 2 m/s 749 mmHg 87%
01:00 -5°C° 0 mm 2 m/s 749 mmHg 89%
02:00 -5°C° 0 mm 2 m/s 749 mmHg 92%
03:00 -4°C° 0 mm 2 m/s 749 mmHg 93%
04:00 -4°C° 0 mm 2 m/s 749 mmHg 94%
05:00 -4°C° 0 mm 2 m/s 748 mmHg 95%
06:00 -4°C° 0 mm 2 m/s 748 mmHg 96%
07:00 -4°C° 0 mm 2 m/s 748 mmHg 96%
08:00 -4°C° 0 mm 2 m/s 748 mmHg 97%
09:00 -4°C° 0 mm 2 m/s 748 mmHg 93%
10:00 -3°C° 0 mm 2 m/s 748 mmHg 89%
11:00 -2°C° 0 mm 2 m/s 748 mmHg 86%
12:00 -2°C° 0 mm 2 m/s 748 mmHg 85%
13:00 -2°C° 0 mm 2 m/s 747 mmHg 84%
14:00 -2°C° 0 mm 2 m/s 747 mmHg 83%
15:00 -2°C° 0 mm 2 m/s 747 mmHg 83%
16:00 -2°C° 0 mm 2 m/s 747 mmHg 84%
17:00 -2°C° 0 mm 2 m/s 747 mmHg 85%
18:00 -2°C° 0 mm 2 m/s 747 mmHg 84%
19:00 -2°C° 0 mm 2 m/s 747 mmHg 83%
20:00 -2°C° 0 mm 2 m/s 746 mmHg 83%
21:00 -2°C° 0 mm 2 m/s 746 mmHg 83%
22:00 -2°C° 0 mm 2 m/s 746 mmHg 83%
23:00 -2°C° 0 mm 2 m/s 746 mmHg 83%

Amanhã, 3 Dezembro, Quinta-feira

Tempo Temperatura Precipitação Vento Pressão Humidade
00:00 -2°C° 0 mm 2 m/s 746 mmHg 83%
01:00 -2°C° 0 mm 2 m/s 746 mmHg 84%
02:00 -2°C° 0 mm 2 m/s 746 mmHg 84%
03:00 -2°C° 0 mm 2 m/s 745 mmHg 87%
04:00 -3°C° 0 mm 2 m/s 745 mmHg 90%
05:00 -4°C° 0 mm 2 m/s 745 mmHg 94%
06:00 -4°C° 0 mm 2 m/s 745 mmHg 94%
07:00 -4°C° 0 mm 2 m/s 745 mmHg 94%
08:00 -5°C° 0 mm 3 m/s 745 mmHg 94%
09:00 -2°C° 0 mm 3 m/s 745 mmHg 87%
10:00 -2°C° 0 mm 4 m/s 745 mmHg 80%
11:00 -1°C° 0 mm 4 m/s 745 mmHg 73%
12:00 -1°C° 0 mm 4 m/s 744 mmHg 73%
13:00 0°C° 0 mm 4 m/s 744 mmHg 73%
14:00 0°C° 0 mm 5 m/s 744 mmHg 73%
15:00 -1°C° 0 mm 5 m/s 744 mmHg 79%
16:00 -1°C° 0 mm 5 m/s 743 mmHg 85%
17:00 -2°C° 0 mm 5 m/s 743 mmHg 90%
18:00 -2°C° 0 mm 5 m/s 743 mmHg 90%
19:00 -2°C° 0 mm 5 m/s 743 mmHg 89%
20:00 -1°C° 0 mm 5 m/s 743 mmHg 88%
21:00 -1°C° 0 mm 5 m/s 743 mmHg 88%
22:00 -1°C° 0 mm 5 m/s 743 mmHg 88%
23:00 0°C° 0 mm 5 m/s 742 mmHg 88%

Depois de amanhã, 4 Dezembro, Sexta-feira

Tempo Temperatura Precipitação Vento Pressão Humidade
00:00 0°C° 0 mm 5 m/s 742 mmHg 88%
01:00 -1°C° 0 mm 6 m/s 742 mmHg 88%
02:00 -1°C° 0 mm 6 m/s 741 mmHg 89%
03:00 -1°C° 0 mm 6 m/s 741 mmHg 89%
04:00 +1°C° 0 mm 6 m/s 741 mmHg 89%
05:00 +1°C° 0 mm 6 m/s 741 mmHg 90%
06:00 +1°C° 0 mm 6 m/s 740 mmHg 90%
07:00 +2°C° 0 mm 6 m/s 740 mmHg 90%
08:00 +2°C° 0 mm 7 m/s 740 mmHg 91%
09:00 +3°C° 0 mm 7 m/s 740 mmHg 90%
10:00 +3°C° 0 mm 7 m/s 740 mmHg 88%
11:00 +4°C° 0 mm 8 m/s 740 mmHg 87%
12:00 +4°C° 0 mm 8 m/s 740 mmHg 84%
13:00 +4°C° 0 mm 8 m/s 740 mmHg 81%
14:00 +5°C° 0 mm 8 m/s 740 mmHg 78%
15:00 +4°C° 0 mm 8 m/s 740 mmHg 76%
16:00 +4°C° 0 mm 8 m/s 740 mmHg 75%
17:00 +4°C° 0 mm 8 m/s 740 mmHg 74%
18:00 +4°C° 0 mm 8 m/s 740 mmHg 74%
19:00 +2°C° 0 mm 8 m/s 740 mmHg 75%
20:00 +2°C° 0 mm 8 m/s 741 mmHg 76%
21:00 +2°C° 0 mm 8 m/s 741 mmHg 77%
22:00 +2°C° 0 mm 8 m/s 741 mmHg 79%
23:00 +2°C° 0 mm 8 m/s 741 mmHg 80%

5 Dezembro, Sábado

Tempo Temperatura Precipitação Vento Pressão Humidade
00:00 +3°C° 0 mm 7 m/s 741 mmHg 82%
01:00 +3°C° 0 mm 7 m/s 741 mmHg 83%
02:00 +4°C° 0 mm 7 m/s 741 mmHg 85%
03:00 +4°C° 0 mm 7 m/s 741 mmHg 85%
04:00 +4°C° 0 mm 7 m/s 741 mmHg 86%
05:00 +4°C° 0 mm 7 m/s 741 mmHg 86%
06:00 +4°C° 0 mm 7 m/s 742 mmHg 86%
07:00 +4°C° 0 mm 6 m/s 742 mmHg 86%
08:00 +4°C° 0 mm 6 m/s 742 mmHg 86%
09:00 +5°C° 0 mm 6 m/s 742 mmHg 85%
10:00 +5°C° 0 mm 7 m/s 742 mmHg 84%
11:00 +5°C° 0 mm 7 m/s 743 mmHg 83%
12:00 +5°C° 0 mm 7 m/s 743 mmHg 82%
13:00 +5°C° 0 mm 7 m/s 743 mmHg 82%
14:00 +5°C° 0 mm 7 m/s 743 mmHg 81%
15:00 +5°C° 0 mm 7 m/s 743 mmHg 82%
16:00 +5°C° 0 mm 6 m/s 743 mmHg 83%
17:00 +4°C° 0 mm 6 m/s 743 mmHg 83%
18:00 +4°C° 0 mm 6 m/s 743 mmHg 84%
19:00 +4°C° 0 mm 7 m/s 743 mmHg 84%
20:00 +4°C° 0 mm 7 m/s 743 mmHg 84%
21:00 +4°C° 0 mm 7 m/s 744 mmHg 84%
22:00 +3°C° 0 mm 7 m/s 744 mmHg 84%
23:00 +3°C° 0 mm 7 m/s 744 mmHg 84%

6 Dezembro, Domingo

Tempo Temperatura Precipitação Vento Pressão Humidade
00:00 +3°C° 0 mm 7 m/s 744 mmHg 84%
01:00 +3°C° 0 mm 7 m/s 744 mmHg 84%
02:00 +3°C° 0 mm 7 m/s 744 mmHg 83%
03:00 +2°C° 0 mm 7 m/s 744 mmHg 84%
04:00 +2°C° 0 mm 7 m/s 744 mmHg 84%
05:00 +1°C° 0 mm 8 m/s 744 mmHg 84%
06:00 0°C° 0 mm 8 m/s 744 mmHg 85%
07:00 0°C° 0 mm 8 m/s 744 mmHg 86%
08:00 0°C° 0 mm 8 m/s 744 mmHg 86%
09:00 0°C° 0 mm 8 m/s 744 mmHg 85%
10:00 0°C° 0 mm 8 m/s 744 mmHg 84%
11:00 0°C° 0 mm 8 m/s 744 mmHg 82%
12:00 0°C° 0 mm 8 m/s 744 mmHg 81%
13:00 0°C° 0 mm 8 m/s 743 mmHg 79%
14:00 0°C° 0 mm 8 m/s 743 mmHg 77%
15:00 0°C° 0 mm 8 m/s 743 mmHg 78%
16:00 -1°C° 0 mm 8 m/s 743 mmHg 78%
17:00 -1°C° 0 mm 8 m/s 743 mmHg 79%
18:00 -2°C° 0 mm 8 m/s 743 mmHg 80%
19:00 -2°C° 0 mm 8 m/s 743 mmHg 81%
20:00 -2°C° 0 mm 8 m/s 743 mmHg 82%
21:00 -2°C° 0 mm 8 m/s 743 mmHg 82%
22:00 -2°C° 0 mm 8 m/s 743 mmHg 82%
23:00 -2°C° 0 mm 8 m/s 744 mmHg 82%

7 Dezembro, Segunda-feira

Tempo Temperatura Precipitação Vento Pressão Humidade
00:00 -2°C° 0 mm 8 m/s 744 mmHg 82%
01:00 -2°C° 0 mm 8 m/s 744 mmHg 82%
02:00 -2°C° 0 mm 8 m/s 744 mmHg 81%
03:00 -2°C° 0 mm 8 m/s 744 mmHg 81%
04:00 -2°C° 0 mm 8 m/s 744 mmHg 81%
05:00 -2°C° 0 mm 8 m/s 744 mmHg 80%
06:00 -2°C° 0 mm 8 m/s 744 mmHg 80%
07:00 -4°C° 0 mm 8 m/s 744 mmHg 80%
08:00 -4°C° 0 mm 8 m/s 744 mmHg 80%
09:00 -4°C° 0 mm 8 m/s 744 mmHg 78%
10:00 -2°C° 0 mm 8 m/s 744 mmHg 75%
11:00 -2°C° 0 mm 8 m/s 745 mmHg 72%
12:00 -2°C° 0 mm 8 m/s 745 mmHg 69%
13:00 -2°C° 0 mm 8 m/s 745 mmHg 66%
14:00 -1°C° 0 mm 8 m/s 745 mmHg 63%
15:00 -1°C° 0 mm 8 m/s 745 mmHg 63%
16:00 -2°C° 0 mm 7 m/s 745 mmHg 62%
17:00 -2°C° 0 mm 7 m/s 745 mmHg 61%
18:00 -3°C° 0 mm 7 m/s 745 mmHg 57%
19:00 -3°C° 0 mm 7 m/s 746 mmHg 52%
20:00 -4°C° 0 mm 8 m/s 746 mmHg 48%
21:00 -4°C° 0 mm 7 m/s 746 mmHg 47%
22:00 -4°C° 0 mm 7 m/s 747 mmHg 46%
23:00 -4°C° 0 mm 7 m/s 747 mmHg 44%
Mostrar mais

Necessitamos do seu Consentimento

A Meteoprog e os seus Fornecedores de Serviços podem armazenar e aceder a dados pessoais como cookies, identificadores do dispositivo ou outras tecnologias semelhantes existentes no seu dispositivo e processar estes dados para personalizar conteúdos e anúncios, assim como funcionalidades nas redes sociais e análise de tráfego.

  • Armazenar e/ou aceder a informações no seu dispositivo

    Os cookies, identificadores do dispositivo ou outras informações podem ser armazenados ou acedidos no seu dispositivo, para os fins acima indicados.

  • Anúncios e conteúdos personalizados, medição de anúncios e conteúdos, dados sobre o público-alvo e desenvolvimento de produtos

    Os anúncios e os conteúdos podem ser personalizados com base num perfil. Podem ser adicionados dados adicionais para uma maior personalização dos anúncios e dos conteúdos. A eficácia dos anúncios e dos conteúdos pode ser medida. Podem ser obtidas informações sobre o público que visualizou os anúncios e os conteúdos. Estes dados podem ser usados para desenvolver ou melhorar sistemas, softwares ou a experiência do utilizador.

Ao clicar em "Eu concordo”, permitirá o uso de cookies, identificadores do dispositivo e web beacons mencionados ou outras tecnologias semelhantes. As configurações do navegador do seu dispositivo podem ser alteradas.

Para certos fins, podem ser invocados interesses legítimos ao invés de consentimento. Pode ler mais informação sobre este assunto na nossa Política de Privacidade e Cookies.